Content
SEND FEEDBACK

Daily
Averages
Monthly
Summary
Philippines

QUEZON CITY, PHILIPPINES


Home > Asia > Philippines
Elevation: 151 feet     Latitude: 14 39N     Longitude: 121 03E

WEATHER
 
SELECT A DAY
Number of Records: 176,976;   Date Range: 7/1/96 - 10/19/14
 
SHARE

PRINT THIS DATA

[ ← Previous Day ]
WEATHER ALMANAC - OCTOBER 5, 2013
[ Next Day → ]
[ °C ]   °F
Weather ElementAverageHighLow
Temperature82.7 °F87.8 °F (1:00 pm)78.8 °F (3:00 am)
Dewpoint74.3 °F76 °F (8:00 pm)71.6 °F (12:00 pm)
Humidity74.7 %84 % (9:00 pm)58 % (11:00 am)
Barometer29.71 in29.76 in (11:00 pm)29.65 in (2:00 pm)
Wind Speed6.8 mph13.8 mph (4:00 pm)
Weather ElementAverage
Visibility5.7 mi
Wind DirectionSSW (189 °)

Weather ElementTotal
Precipitation---
Cooling Degree Days18.3 (Base 65)
Growing Degree Days33.3 (Base 50)
Averaged from 29 records on October 5, 2013
WEATHER CONDITIONS BREAKOUT
WIND DIRECTION BREAKOUT
WEATHER BY HOUR - OCTOBER 5, 2013
[ °C ]   °F
Local TimeTemperatureDewpointHumidityBarometerVisibilityWind DirectionWind SpeedGust SpeedPrecipitationEventsConditions
1:00 AM80.6 °F73.4 °F79 %29.74 in5.6 miNNE (20°)5.8 mphOvercast
2:00 AM80.0 °F74.0 °F76 %29.72 in6.0 miESE (110°)4.5 mphHaze
2:00 AM80.6 °F73.4 °F79 %29.71 in5.6 miNorth (350°)4.6 mphScattered Clouds
3:00 AM78.8 °F73.4 °F83 %29.71 in5.6 miVariable1.2 mphScattered Clouds
4:00 AM78.8 °F73.4 °F83 %29.68 in5.6 miNorth (10°)4.6 mphScattered Clouds
5:00 AM79.0 °F74.0 °F79 %29.70 in6.0 miNorth (10°)4.5 mphHaze
5:00 AM78.8 °F73.4 °F83 %29.71 in5.6 miNorth (10°)4.6 mphScattered Clouds
6:00 AM78.8 °F73.4 °F83 %29.71 in5.0 miNorth (10°)4.6 mphScattered Clouds
7:00 AM80.6 °F73.4 °F79 %29.74 in5.0 miNE (40°)4.6 mphScattered Clouds
8:00 AM82.4 °F73.4 °F74 %29.74 in5.0 miVariable3.5 mphScattered Clouds
9:00 AM84.2 °F75.2 °F74 %29.74 in5.6 miNW (310°)9.2 mphScattered Clouds
10:00 AM84.2 °F75.2 °F74 %29.74 in5.6 miWNW (300°)9.2 mphScattered Clouds
11:00 AM86.0 °F73.0 °F58 %29.74 in6.0 miWNW (290°)8.9 mphHaze
11:00 AM86.0 °F73.4 °F66 %29.74 in6.2 miWNW (300°)8.1 mphScattered Clouds
12:00 PM86.0 °F71.6 °F62 %29.71 in6.2 miWNW (290°)8.1 mphScattered Clouds
1:00 PM87.8 °F75.2 °F66 %29.68 in6.2 miWest (280°)9.2 mphScattered Clouds
2:00 PM87.0 °F75.0 °F59 %29.68 in6.0 miWest (280°)11.2 mphHaze
2:00 PM87.8 °F75.2 °F66 %29.65 in6.2 miWest (280°)10.4 mphScattered Clouds
3:00 PM86.0 °F75.2 °F70 %29.65 in6.2 miWest (260°)11.5 mphScattered Clouds
4:00 PM86.0 °F73.4 °F66 %29.65 in6.2 miWSW (250°)13.8 mphScattered Clouds
5:00 PM84.2 °F75.2 °F74 %29.65 in6.2 miWSW (250°)11.5 mphPartly Cloudy
6:00 PM84.2 °F75.2 °F74 %29.68 in6.2 miSW (230°)6.9 mphScattered Clouds
7:00 PM84.2 °F75.2 °F74 %29.68 in5.0 miSW (220°)5.8 mphScattered Clouds
8:00 PM83.0 °F76.0 °F73 %29.72 in6.0 miSW (220°)4.5 mphHaze
8:00 PM82.4 °F75.2 °F79 %29.71 in5.0 miSW (220°)5.8 mphPartly Cloudy
9:00 PM80.6 °F75.2 °F84 %29.74 in5.6 miSW (220°)6.9 mphScattered Clouds
10:00 PM80.6 °F75.2 °F84 %29.74 in5.6 miSW (220°)5.8 mphPartly Cloudy
11:00 PM80.0 °F75.0 °F81 %29.76 in6.0 miWSW (250°)4.5 mphHaze
11:00 PM80.6 °F75.2 °F84 %29.74 in5.6 miWSW (250°)4.6 mphPartly Cloudy
Hourly data recorded from RPLL, located miles away from Quezon City, Philippines







STORIES FROM OUR PARTNERS